Terug naar catalogus

COSMOS 886 DEB

ActiefLEO
NORAD 9961·DEBRIS·🇷🇺 Russia

Gelanceerd Dec 27, 1976 vanaf Baikonur Cosmodrome

Loading…

Volgende Passages (komende 24 uur)

TLE

VersSource: Space-Track

Epoch: Sep 14, 2026, 14:23 UTC

1 09961U 76126BB  26257.59949233  .00001431  00000-0  35115-3 0  9990
2 09961  65.7957 340.8493 0532067  17.3068 344.5387 13.94148762413080

Volg COSMOS 886 DEB in realtime met AllMySat

Download on the App Store